ARIANE 42P DEB, 44513

Orbit data source: Space-Track

ARIANE 42P DEB, 44513 is space debris in LEO originally from a launch on Mon, 10 Aug 1992 UTC launched from the French Guiana (FRGUI). Debris objects in space refer to the collection of defunct objects orbiting the Earth. Examples of debris include non-operational satellites, rocket bodies, and fragments generated from explosions, collisions, or faulty payload assembly.

Loading next visibility...
Identifier
44513, 1992-052L
Orbit
LEO
Country
Flag of FRFR
Related business
Manufacturer
ArianeGroup
Mission
Spacecraft
Bus & Motor
Unknown
Mass
Unknown
Launch date (UTC)
1992-08-10 (33 years ago)
Launch vehicle
Unknown
Launch site
French Guiana (FRGUI)
Object type
Payload
Rocket body
Debris
Shape & HBR
Unknown
Radar Cross Section
Small (<0.1 m²)

Expand to show TLE details & history
Last TLE update: 2 days ago

TLE from 2 days ago
0 ARIANE 42P DEB
1 44513U 92052L   25258.97136678 -.00000037  00000-0  10593-3 0  9996
2 44513  66.0372 150.7299 0050276  93.3622 267.3146 12.79550758283631
Epoch: 2025-09-15T23:18Z
TLE epoch observation values (Epoch: 2025-09-15T23:18:46.089Z)
Latitude
0.00001°
Longitude
165.8695°
Altitude
1,347.199 km
Speed
7.184 km/s
True Right ascension
10h 02m 55s
True Declination
0° 00' 00"
Sunlit
Object was in daylight at epoch
Visualization orbit readout
Latitude
Unknown
Longitude
Unknown
Altitude
Unknown
Speed
Unknown
Apparent Right ascension
Unknown
Apparent Declination
Unknown
Sunlit
N/A
Visualization observer readout
Local Sidereal Time
15:41:15
Azimuth
Unknown
Elevation
Unknown
Doppler factor
Unknown
Orbital elements
Apogee altitude
1,380.654 km
Perigee altitude
1,303.028 km
Semi-major axis
7,719.978 km
Eccentricity
0.00503
Inclination
66.0372°
RAAN
150.7299°
Arg. of periapsis
93.3622°
True anomaly
266.73929°
Mean anomaly
267.3146°
Eccentric anomaly
267.02693°
Mean motion
3.19977 °/min
Orbital period
112.51 mins
BSTAR
0.00010593
Loading maneuver chart data...
Computing Atmospheric mass density...
Loading historical data...
Loading historical data...
Loading historical data...
Loading historical data...
Loading historical data...
Loading historical data...
Loading historical data...

Documentation

Showing up to 5 results
|